Orbital Elements at Epoch 2459200.5 (2020-Dec-17.0) TDB
Reference: JPL 19 (heliocentric ecliptic J2000)
Element | Value | Uncertainty (1-sigma) | Units |
e | .1681386641056954 | 4.5713e-08 | |
a | 2.414847682981363 | 1.0811e-08 | au |
q | 2.008818419546142 | 1.0877e-07 | au |
i | 3.745846044104404 | 4.9102e-06 | deg |
node | 146.475096943645 | 4.8867e-05 | deg |
peri | 184.5462660894029 | 4.9874e-05 | deg |
M | 240.4722986690384 | 1.0533e-05 | deg |
tp | 2459655.591902116323 (2022-Mar-17.09190212) | 4.1663e-05 | TDB |
period | 1370.670421480263 3.75 | 9.2046e-06 2.52e-08 | d yr |
n | .2626451949048524 | 1.7638e-09 | deg/d |
Q | 2.820876946416583 | 1.2629e-08 | au |
|
| | Orbit Determination Parameters
Additional Information
|